Location: Sungai Jaoh
(2.9167°N, 113.9167°E)
Time: 05:19:44
(UTC+00:00)

CSL-04 DEB - Pass Details

Date: 30 November 2020
Orbit: 545 x 627 km, 98.8° (Epoch: 25 January)

Event Time Altitude Azimuth Distance (km) Brightness Sun altitude
Rises 21:16:45 0° 167° (SSE) 2,741 8.4 -14.2°
Reaches altitude 10° 21:18:54 10° 167° (SSE) 1,835 7.5 -13.7°
Maximum altitude 21:22:51 88° 75° (ENE) 553 4.3 -12.8°
Drops below altitude 10° 21:26:45 10° 348° (NNW) 1,806 6.6 -11.9°
Enters shadow 21:28:41 - 348° (NNW) 2,627 7.5 -11.4°
